Date,TemperatureHighF,TemperatureAvgF,TemperatureLowF,DewpointHighF,DewpointAvgF,DewpointLowF,HumidityHigh,HumidityAvg,HumidityLow,PressureMaxIn,PressureMinIn,WindSpeedMaxMPH,WindSpeedAvgMPH,GustSpeedMaxMPH,PrecipitationSumIn
2013-9-1,82.5,74.0,64.7,69.2,63.5,57.4,94,72,45,29.94,29.68,19,4,22,0.03
2013-9-2,79.8,67.5,56.3,61.4,56.9,52.7,95,71,40,30.06,29.94,8,2,12,0.00
2013-9-3,85.3,68.4,51.7,63.9,57.7,49.3,94,71,46,30.06,29.95,10,2,12,0.00
2013-9-4,86.1,72.4,62.2,65.3,61.4,58.1,89,71,39,30.09,29.98,13,3,15,0.00
2013-9-5,87.6,75.1,65.9,65.7,62.4,57.2,90,67,38,30.12,30.01,13,3,17,0.00
2013-9-6,93.8,78.5,65.3,70.3,65.2,59.6,85,66,43,30.02,29.81,20,6,20,0.00
2013-9-7,89.5,76.8,69.4,72.2,68.5,64.7,93,77,47,29.85,29.76,12,3,14,0.00
2013-9-8,93.6,79.1,67.1,74.6,70.5,65.8,96,77,46,29.84,29.70,10,2,13,0.00
2013-9-9,97.5,82.6,70.4,71.6,63.0,56.8,85,55,27,29.76,29.67,19,7,28,0.00
2013-9-10,95.9,78.9,67.1,69.5,64.3,58.9,94,64,36,29.99,29.76,30,5,37,0.02
2013-9-11,79.8,72.6,68.3,73.1,69.0,66.5,96,89,74,30.06,29.96,7,1,9,0.16
2013-9-12,78.6,70.6,59.8,67.0,57.0,51.1,95,65,39,30.16,30.05,10,3,14,0.17
2013-9-13,74.6,62.6,50.6,55.6,51.9,48.6,94,71,43,30.18,30.02,8,1,9,0.06
2013-9-14,76.6,64.7,52.1,58.0,53.1,49.1,91,68,46,30.04,29.81,15,5,20,0.05
2013-9-15,67.4,64.6,61.4,65.0,58.9,53.3,95,82,71,30.19,29.79,17,4,18,0.04
2013-9-16,65.8,60.4,54.6,56.0,53.7,51.5,92,79,67,30.27,30.15,16,4,18,0.03
2013-9-17,76.5,64.7,57.1,68.4,61.6,55.3,96,90,74,30.16,29.82,17,4,19,0.03
2013-9-18,90.5,77.6,67.1,71.0,67.7,64.7,92,73,49,29.83,29.60,19,9,25,0.02
2013-9-19,80.3,70.3,57.3,66.9,61.4,51.1,93,74,59,29.96,29.64,21,6,23,0.01
2013-9-20,71.0,58.8,47.9,52.8,47.5,44.3,91,69,40,30.06,29.93,14,3,19,0.01
2013-9-21,77.6,60.5,43.3,55.1,49.0,41.7,95,69,43,30.00,29.80,11,3,16,0.01
2013-9-22,81.1,67.2,53.6,56.6,51.7,46.9,91,61,31,29.84,29.72,23,7,25,0.01
2013-9-23,77.0,65.7,54.2,54.6,51.4,48.9,84,62,41,29.77,29.64,22,9,30,0.01
2013-9-24,70.0,63.8,56.8,58.5,56.0,53.2,92,76,64,29.86,29.63,15,4,19,0.00
2013-9-25,79.3,63.8,48.0,62.1,55.5,46.6,97,77,49,29.88,29.68,17,4,21,0.01
2013-9-26,87.6,73.7,61.9,60.8,59.1,57.4,87,63,38,29.73,29.64,26,10,32,0.00
2013-9-27,88.1,76.5,68.1,62.0,59.7,57.1,77,58,39,29.74,29.65,27,13,32,0.00
2013-9-28,72.6,62.0,48.6,62.9,50.5,41.7,93,68,40,30.02,29.59,21,6,25,0.29
2013-9-29,77.0,58.9,41.8,48.0,44.0,39.4,92,63,30,30.03,29.83,20,5,23,0.00
2013-9-30,81.3,64.2,49.2,53.2,50.0,44.9,90,63,35,29.86,29.65,19,6,24,0.00